sat.trackr.live / text

‹ back to catalog

ARIRANG-2 (KOMPSAT-2)

NORAD 29268 · 2006-031A

PAYLOAD ACTIVE UNKNOWN

§ Identity

Operator
Country
SKOR
Launch date
2006-07-28
Launch site
PLMSC
Launch vehicle
Mass (kg)
RCS (m²)
2.07

Purposes: earth_obs

External: N2YO · Heavens-Above · Gunter

§ Orbital elements

Epoch: 2026-09-04T04:58:54.593184Z

Period
98.31 min
Inclination
97.8340°
Eccentricity
0.0014267
Mean motion
14.64699360 rev/d
Perigee alt
668.0 km
Apogee alt
688.1 km
Semi-major
7,056.2 km
B*
2.4745e-5
RAAN
67.8504°
Arg perigee
177.3388°
Mean anomaly
299.0783°
Rev number
7,304

§ Raw data

ARIRANG-2 (KOMPSAT-2)1 29268U 06031A   26247.20757631  .00000087  00000+0  24745-4 0  99992 29268  97.8340  67.8504 0014267 177.3388 299.0783 14.64699360 73047

JSON: /api/v1/satellites/29268 · /tle

For live sub-satellite position, see the globe view (requires WebGL).

§ Visibility from observer

Set your observer location to see the next 7 days of passes ≥ 10°. The values pass through the URL so the page stays shareable.

No JS? Fill the form by hand. The geolocation button needs JavaScript.